Tracking 29892 objects as of 21-Nov-2024
HD Live streaming from Space Station
objects crossing your sky now

DELTA 1 DEB

Track DELTA 1 DEB now!
10-day predictions


NORAD ID: 17768
Int'l Code: 1978-026HA
Perigee: 701.5 km
Apogee: 812.8 km
Inclination: 98.6 °
Period: 99.8 minutes
Semi major axis: 7128 km
RCS: 0.0104 m2 (small)
Launch date: March 5, 1978
Source: United States (US)
Launch site: AIR FORCE WESTERN TEST RANGE (AFWTR)

Note: This is SATELLITE DEBRIS
Your satellite tracking list
Your tracking list is empty




NASA's NSSDC Master Catalog

Two Line Element Set (TLE):
1 17768U 78026HA  24324.48931440  .00002051  00000-0  60948-3 0  9998
2 17768  98.6149 324.7468 0078120  22.2034 129.0425 14.42569450239426
Source of the keplerian elements: AFSPC